Total_Precipitation_Accumulation
0.04 0.10 0.27 0.54 1.19 1.52 1.30 0.72 0.54 0.42 0.42 0.44 0.45 0.43 0.46 0.53 0.85 1.21 0.77 0.40 0.14 0.05 0.05 0.18 0.33 0.29 0.25 0.24 0.24 0.27 0.27 0.25 0.22 0.19 0.16 0.14 0.14 0.15 0.17 0.19 0.20 0.23 0.27 0.31 0.33 0.35 0.32 0.32 0.39
0.07 0.13 0.34 0.81 1.48 1.49 1.11 0.60 0.46 0.36 0.40 0.40 0.36 0.40 0.52 0.58 0.46 0.46 0.54 0.39 0.14 0.05 0.03 0.07 0.22 0.27 0.25 0.24 0.25 0.27 0.26 0.23 0.22 0.19 0.16 0.16 0.17 0.18 0.22 0.22 0.23 0.28 0.30 0.31 0.31 0.28 0.31 0.36 0.41
0.08 0.16 0.36 0.82 0.99 0.96 0.76 0.49 0.41 0.33 0.43 0.59 0.50 0.42 0.53 0.69 0.52 0.43 0.41 0.23 0.13 0.10 0.07 0.11 0.20 0.22 0.23 0.25 0.26 0.26 0.24 0.22 0.21 0.19 0.18 0.20 0.22 0.25 0.27 0.28 0.29 0.31 0.32 0.32 0.32 0.29 0.34 0.34 0.37
0.09 0.22 0.41 0.53 0.42 0.38 0.39 0.40 0.40 0.44 0.64 0.79 0.65 0.53 0.58 0.54 0.51 0.43 0.33 0.22 0.16 0.13 0.12 0.16 0.22 0.23 0.24 0.26 0.26 0.25 0.23 0.21 0.20 0.19 0.21 0.24 0.27 0.32 0.31 0.33 0.35 0.33 0.34 0.38 0.40 0.35 0.34 0.35 0.37
0.09 0.28 0.54 0.40 0.23 0.23 0.24 0.29 0.45 0.51 0.76 0.84 0.61 0.64 0.71 0.63 0.59 0.55 0.40 0.34 0.32 0.34 0.31 0.29 0.31 0.29 0.27 0.27 0.28 0.27 0.26 0.24 0.22 0.21 0.23 0.27 0.30 0.35 0.37 0.39 0.39 0.35 0.35 0.41 0.45 0.40 0.37 0.44 0.50
0.09 0.22 0.36 0.27 0.16 0.14 0.17 0.24 0.38 0.51 0.74 0.80 0.65 0.82 0.87 0.86 0.82 0.76 0.72 0.74 0.68 0.73 0.65 0.58 0.55 0.45 0.39 0.34 0.34 0.33 0.33 0.29 0.28 0.27 0.27 0.29 0.32 0.35 0.39 0.41 0.42 0.39 0.41 0.46 0.44 0.41 0.45 0.50 0.55
0.07 0.17 0.23 0.16 0.10 0.11 0.18 0.24 0.41 0.56 0.73 0.95 0.91 1.00 1.00 1.09 1.06 0.98 0.96 1.01 1.04 1.02 0.96 0.76 0.64 0.57 0.50 0.51 0.46 0.41 0.39 0.38 0.37 0.38 0.34 0.34 0.33 0.34 0.36 0.44 0.46 0.42 0.43 0.48 0.49 0.47 0.52 0.54 0.54
0.04 0.08 0.13 0.09 0.05 0.08 0.15 0.24 0.38 0.55 0.80 0.95 0.95 1.02 1.03 0.99 1.05 1.14 1.19 1.32 1.52 1.35 1.18 0.90 0.75 0.78 0.64 0.58 0.56 0.51 0.44 0.43 0.42 0.42 0.43 0.44 0.43 0.42 0.46 0.49 0.52 0.48 0.47 0.50 0.57 0.57 0.56 0.57 0.58
0.02 0.05 0.07 0.06 0.03 0.05 0.14 0.30 0.44 0.48 0.63 0.93 1.18 1.02 0.86 0.93 1.21 1.39 1.62 1.72 1.87 1.76 1.34 0.97 0.90 1.01 0.88 0.69 0.63 0.72 0.65 0.62 0.62 0.67 0.67 0.80 1.00 0.89 0.90 0.75 0.73 0.70 0.72 0.77 0.84 0.84 0.84 0.81 0.70
0.02 0.04 0.05 0.03 0.02 0.04 0.14 0.36 0.52 0.61 0.94 1.25 1.44 1.24 1.01 0.98 1.39 1.73 1.82 1.89 1.63 1.71 1.67 1.32 1.09 1.04 1.00 0.85 0.87 1.18 1.15 1.14 1.24 1.31 1.25 1.49 1.50 1.32 0.97 0.95 1.13 1.09 1.21 1.34 1.51 1.62 1.41 1.16 1.01
0.01 0.01 0.02 0.02 0.02 0.05 0.18 0.21 0.30 0.56 1.14 1.54 1.75 1.37 1.10 1.14 1.46 1.94 2.08 1.96 1.67 1.67 1.61 1.62 1.39 1.21 1.16 1.25 1.19 1.34 1.49 1.60 1.72 1.64 1.67 1.87 1.59 1.33 1.16 1.30 1.57 1.59 1.69 1.79 2.03 2.17 1.68 1.68 1.97
0.01 0.01 0.01 0.01 0.01 0.03 0.11 0.19 0.34 0.64 1.12 1.40 1.29 1.13 1.12 1.29 1.48 2.00 2.28 2.10 1.95 1.89 1.82 2.07 1.96 1.75 1.71 1.61 1.60 1.46 1.39 1.45 1.59 1.67 1.67 1.82 1.78 1.63 1.63 1.73 1.76 1.92 2.09 2.33 2.23 2.37 2.39 2.46 2.34
0.00 0.00 0.01 0.01 0.02 0.03 0.08 0.20 0.31 0.54 0.83 0.89 0.79 0.95 1.34 1.42 1.65 2.16 2.68 2.63 2.48 2.32 2.39 2.57 2.54 2.58 2.44 2.15 1.92 1.56 1.48 1.41 1.42 1.51 1.53 1.75 1.96 1.97 2.05 1.89 1.87 1.65 1.86 2.24 2.49 2.54 2.74 2.87 2.79
0.00 0.01 0.01 0.03 0.04 0.05 0.09 0.18 0.35 0.74 0.75 0.68 0.80 1.10 1.42 1.76 1.84 2.23 2.87 3.03 2.96 2.93 3.12 3.15 3.15 3.10 2.90 2.42 2.14 1.90 1.62 1.58 1.47 1.49 1.58 2.02 2.22 2.13 2.18 2.10 2.00 1.76 1.83 2.17 2.51 2.60 2.87 2.85 2.89
0.01 0.03 0.09 0.09 0.07 0.08 0.13 0.40 0.62 0.80 0.76 0.75 0.97 1.17 1.61 2.12 2.28 2.50 2.90 3.13 3.33 3.60 3.79 3.95 3.87 3.55 3.40 2.97 2.37 2.00 1.74 1.53 1.58 1.72 1.82 2.10 2.26 2.37 2.48 2.38 2.05 1.89 2.01 2.19 2.23 2.37 2.81 2.65 2.64
0.02 0.06 0.23 0.18 0.09 0.10 0.19 0.63 0.80 0.82 0.85 0.91 1.13 1.43 1.74 2.18 2.21 2.41 2.71 3.19 3.69 4.17 4.58 4.75 4.48 4.27 4.05 3.56 3.00 2.59 2.30 2.08 2.06 2.04 1.93 1.80 2.00 2.13 2.26 1.99 1.66 1.80 2.05 2.21 2.16 2.14 2.51 2.58 2.63
0.05 0.09 0.19 0.18 0.12 0.11 0.21 0.60 0.63 0.54 0.88 1.25 1.47 1.62 1.73 1.89 1.98 2.19 2.48 3.07 3.74 4.47 5.20 5.57 5.73 5.12 4.50 3.81 3.29 2.89 2.69 2.49 2.29 2.03 1.82 1.57 1.43 1.40 1.51 1.40 1.34 1.47 1.75 1.81 1.61 1.75 2.02 2.17 2.33
0.04 0.08 0.14 0.19 0.16 0.16 0.28 0.54 0.66 0.57 0.85 1.21 1.25 1.50 1.60 1.60 1.79 2.16 2.66 3.09 3.88 4.66 5.37 5.75 5.87 5.24 4.41 3.89 3.62 3.27 2.91 2.61 2.26 1.89 1.64 1.33 1.22 1.09 1.18 1.17 1.08 1.13 1.21 1.27 1.45 1.67 1.76 1.69 1.79
0.04 0.07 0.15 0.17 0.17 0.23 0.38 0.64 0.76 0.75 0.79 0.94 1.04 1.24 1.26 1.30 1.57 2.03 2.66 3.28 4.05 5.12 5.75 5.81 5.40 4.59 3.96 3.44 3.15 2.80 2.55 2.36 1.96 1.58 1.33 1.16 1.11 1.02 1.09 1.03 1.02 1.01 0.99 1.00 1.13 1.28 1.34 1.18 1.34
0.05 0.09 0.17 0.16 0.13 0.15 0.35 0.68 0.79 0.83 0.89 0.88 0.94 1.04 0.95 1.08 1.43 2.05 2.83 3.60 4.19 4.72 5.05 5.02 4.52 3.70 3.18 2.79 2.68 2.43 2.19 1.87 1.64 1.41 1.28 1.07 0.99 0.92 0.90 0.96 0.86 0.83 0.92 0.90 0.95 1.07 1.09 0.98 1.08
0.08 0.09 0.14 0.17 0.13 0.15 0.36 0.79 0.94 0.90 0.90 0.87 0.75 0.76 0.85 1.06 1.63 2.41 3.22 3.92 4.16 4.14 3.90 3.53 3.24 2.87 2.73 2.59 2.36 2.13 2.03 1.74 1.49 1.23 1.10 0.94 0.82 0.74 0.71 0.71 0.68 0.70 0.70 0.76 0.84 0.91 1.00 0.96 0.88
0.09 0.07 0.05 0.07 0.11 0.32 0.45 0.89 1.01 1.02 1.01 0.85 0.73 0.79 0.95 1.22 1.76 2.49 3.06 3.23 3.30 3.15 2.83 2.61 2.52 2.44 2.32 2.20 2.07 1.73 1.48 1.38 1.22 1.09 1.02 0.92 0.79 0.71 0.67 0.60 0.60 0.61 0.57 0.69 0.63 0.73 0.88 0.93 0.80
0.05 0.04 0.04 0.08 0.18 0.34 0.47 0.76 1.06 1.03 1.10 0.72 0.56 0.66 0.80 1.04 1.33 1.57 1.79 1.91 2.02 1.99 2.05 2.08 2.17 2.24 2.09 2.02 1.96 1.80 1.49 1.42 1.37 1.31 1.28 1.13 0.95 0.81 0.67 0.65 0.65 0.64 0.54 0.58 0.61 0.73 0.80 0.85 0.78
0.04 0.06 0.12 0.21 0.36 0.71 0.70 0.81 1.11 1.07 0.91 0.52 0.36 0.41 0.60 0.75 0.82 0.92 1.01 1.12 1.34 1.36 1.41 1.55 1.63 1.76 1.87 1.85 1.69 1.60 1.47 1.49 1.49 1.39 1.21 1.02 0.93 0.85 0.74 0.72 0.78 0.71 0.66 0.65 0.63 0.68 0.71 0.82 0.88
0.05 0.09 0.31 0.63 0.98 1.04 0.62 0.71 1.10 1.00 0.67 0.37 0.26 0.24 0.31 0.47 0.64 0.80 0.91 1.02 1.20 1.10 1.08 1.18 1.27 1.32 1.43 1.42 1.37 1.36 1.41 1.41 1.30 1.20 1.09 0.93 0.77 0.74 0.76 0.74 0.78 0.75 0.78 0.72 0.73 0.74 0.67 0.74 0.83
0.06 0.07 0.18 0.35 0.45 0.61 0.64 1.11 1.32 0.73 0.43 0.29 0.22 0.19 0.22 0.37 0.54 0.64 0.64 0.74 0.83 0.75 0.81 0.91 1.03 1.10 1.13 1.16 1.19 1.18 1.23 1.16 1.10 1.14 1.07 0.92 0.78 0.73 0.71 0.68 0.68 0.71 0.75 0.75 0.89 0.81 0.79 0.81 0.78
0.06 0.05 0.07 0.09 0.16 0.43 0.78 1.12 1.05 0.61 0.42 0.28 0.23 0.21 0.21 0.28 0.42 0.47 0.37 0.41 0.52 0.62 0.68 0.73 0.88 0.99 0.99 1.05 1.07 1.03 1.07 1.10 1.14 1.13 1.04 0.90 0.88 0.80 0.78 0.75 0.80 0.83 0.85 0.89 0.99 0.93 0.89 0.93 0.83
0.06 0.06 0.07 0.10 0.18 0.37 0.69 1.11 1.27 0.92 0.51 0.33 0.31 0.31 0.28 0.26 0.30 0.31 0.29 0.29 0.36 0.49 0.65 0.73 0.83 0.91 0.94 0.99 0.98 0.82 0.94 1.04 1.17 1.12 1.03 0.93 0.96 0.87 0.89 0.87 0.87 0.93 0.91 0.91 1.01 1.00 1.05 1.09 1.06
0.09 0.08 0.10 0.10 0.11 0.21 0.53 0.79 0.66 0.65 0.47 0.44 0.39 0.36 0.33 0.29 0.31 0.28 0.24 0.24 0.27 0.36 0.52 0.65 0.77 0.84 0.87 0.91 0.98 1.03 1.02 0.93 1.02 1.06 1.04 1.06 1.06 0.97 0.96 0.97 1.02 1.00 1.02 1.07 1.14 1.09 1.15 1.26 1.40
0.11 0.11 0.12 0.13 0.12 0.13 0.26 0.41 0.40 0.57 0.54 0.49 0.46 0.45 0.43 0.31 0.26 0.26 0.28 0.30 0.30 0.30 0.38 0.49 0.60 0.73 0.79 0.87 0.98 1.05 1.10 1.00 0.97 0.99 1.06 1.10 1.15 1.18 1.14 1.08 1.08 1.02 1.04 1.17 1.24 1.27 1.29 1.31 1.34